This demonstration page uses our WeatherBlox Daily Observations layout. Learn more.

Left ArrowRight Arrow

36.17497, -115.13722

Hourly Observations for May 27, 2017

Temp ( °F °C ) Dew Point ( °F °C ) Humidity (%) Winds ( mph kmh ) Pressure ( in mb ) Visibility ( mi km ) Precip ( " mm )
12:53 am 00:53 Clear 75 23.9 23 -5 14 14 NNW 10 17 29.80 1009 10 16 0.00 0.00
1:53 am 01:53 Clear 74 23.3 23 -5 15 15 NNW 3 6 29.82 1010 10 16 0.00 0.00
2:53 am 02:53 Clear 73 22.8 24 -4.4 16 16 N 10 17 29.84 1010 10 16 0.00 0.00
3:53 am 03:53 Clear 74 23.3 26 -3.3 17 17 ENE 8 13 29.85 1011 10 16 0.00 0.00
4:53 am 04:53 Clear 73 22.8 26 -3.3 17 17 NNE 5 7 29.88 1012 10 16 0.00 0.00
5:53 am 05:53 Sunny 74 23.3 27 -2.8 17 17 NNW 7 11 29.91 1013 10 16 0.00 0.00
6:53 am 06:53 Sunny 74 23.3 28 -2.2 18 18 N 9 15 29.93 1014 10 16 0.00 0.00
7:53 am 07:53 Sunny 77 25 29 -1.7 17 17 N 8 13 29.96 1014 10 16 0.00 0.00
8:53 am 08:53 Sunny 80 26.7 29 -1.7 15 15 N 8 13 29.97 1015 10 16 0.00 0.00
9:53 am 09:53 Sunny 82 27.8 29 -1.7 14 14 N 7 11 29.97 1015 10 16 0.00 0.00
10:53 am 10:53 Sunny 82 27.8 29 -1.7 14 14 VRB 6 9 29.97 1015 10 16 0.00 0.00
11:53 am 11:53 Sunny 85 29.4 28 -2.2 13 13 VRB 6 9 29.97 1015 10 16 0.00 0.00
12:53 pm 12:53 Sunny 86 30 28 -2.2 12 12 E 7 11 29.96 1015 10 16 0.00 0.00
1:53 pm 13:53 Sunny 87 30.6 27 -2.8 11 11 SE 6 9 29.95 1014 10 16 0.00 0.00
2:53 pm 14:53 Sunny 90 32.2 26 -3.3 10 10 NE 9 15 29.93 1013 10 16 0.00 0.00
3:53 pm 15:53 Sunny 90 32.2 25 -3.9 9 9 ENE 7 11 29.91 1013 10 16 0.00 0.00
4:53 pm 16:53 Sunny 89 31.7 25 -3.9 10 10 Calm 29.90 1013 10 16 0.00 0.00
5:53 pm 17:53 Sunny 91 32.8 25 -3.9 9 9 NNE 8 13 29.89 1012 10 16 0.00 0.00
6:53 pm 18:53 Sunny 90 32.2 25 -3.9 9 9 E 3 6 29.89 1012 10 16 0.00 0.00
7:53 pm 19:53 Clear 87 30.6 25 -3.9 10 10 E 3 6 29.90 1012 10 16 0.00 0.00
8:53 pm 20:53 Clear 87 30.6 26 -3.3 11 11 E 3 6 29.90 1013 10 16 0.00 0.00
9:53 pm 21:53 Clear 83 28.3 27 -2.8 13 13 NE 6 9 29.92 1013 10 16 0.00 0.00
10:53 pm 22:53 Clear 81 27.2 31 -0.6 16 16 WNW 5 7 29.93 1014 10 16 0.00 0.00
11:53 pm 23:53 Clear 80 26.7 29 -1.7 15 15 NE 6 9 29.95 1014 10 16 0.00 0.00

Powered by AerisWeather